Year,Month,Day,Hour,Minute,Value (Times are PST for windgust in km/hr)
2009,11,17,00,00,11.30
2009,11,17,00,01,4.80
2009,11,17,00,02,4.80
2009,11,17,00,03,11.30
2009,11,17,00,04,8.10
2009,11,17,00,05,14.50
2009,11,17,00,06,19.30
2009,11,17,00,07,9.60
2009,11,17,00,08,8.10
2009,11,17,00,09,16.10
2009,11,17,00,10,11.30
2009,11,17,00,11,19.30
2009,11,17,00,12,11.30
2009,11,17,00,13,9.60
2009,11,17,00,14,14.50
2009,11,17,00,15,12.90
2009,11,17,00,16,11.30
2009,11,17,00,17,8.10
2009,11,17,00,18,11.30
2009,11,17,00,19,8.10
2009,11,17,00,20,14.50
2009,11,17,00,21,8.10
2009,11,17,00,22,8.10
2009,11,17,00,23,4.80
2009,11,17,00,24,8.10
2009,11,17,00,25,9.60
2009,11,17,00,26,4.80
2009,11,17,00,27,4.80
2009,11,17,00,28,4.80
2009,11,17,00,29,3.20
2009,11,17,00,30,4.80
2009,11,17,00,31,3.20
2009,11,17,00,32,3.20
2009,11,17,00,33,3.20
2009,11,17,00,34,1.60
2009,11,17,00,35,1.60
2009,11,17,00,36,0.00
2009,11,17,00,37,1.60
2009,11,17,00,38,1.60
2009,11,17,00,39,3.20
2009,11,17,00,40,0.00
2009,11,17,00,41,1.60
2009,11,17,00,42,1.60
2009,11,17,00,43,1.60
2009,11,17,00,44,3.20
2009,11,17,00,45,3.20
2009,11,17,00,46,3.20
2009,11,17,00,47,3.20
2009,11,17,00,48,3.20
2009,11,17,00,49,1.60
2009,11,17,00,50,1.60
2009,11,17,00,51,3.20
2009,11,17,00,52,3.20
2009,11,17,00,53,1.60
2009,11,17,00,54,1.60
2009,11,17,00,55,1.60
2009,11,17,00,56,0.00
2009,11,17,00,57,1.60
2009,11,17,00,58,1.60
2009,11,17,00,59,0.00
2009,11,17,01,00,1.60
2009,11,17,01,01,0.00
2009,11,17,01,02,0.00
2009,11,17,01,03,0.00
2009,11,17,01,04,0.00
2009,11,17,01,05,0.00
2009,11,17,01,06,1.60
2009,11,17,01,07,3.20
2009,11,17,01,08,3.20
2009,11,17,01,09,4.80
2009,11,17,01,10,3.20
2009,11,17,01,11,6.40
2009,11,17,01,12,4.80
2009,11,17,01,13,3.20
2009,11,17,01,14,3.20
2009,11,17,01,15,6.40
2009,11,17,01,16,6.40
2009,11,17,01,17,4.80
2009,11,17,01,18,3.20
2009,11,17,01,19,4.80
2009,11,17,01,20,4.80
2009,11,17,01,21,6.40
2009,11,17,01,22,4.80
2009,11,17,01,23,4.80
2009,11,17,01,24,6.40
2009,11,17,01,25,4.80
2009,11,17,01,26,6.40
2009,11,17,01,27,4.80
2009,11,17,01,28,4.80
2009,11,17,01,29,3.20
2009,11,17,01,30,6.40
2009,11,17,01,31,1.60
2009,11,17,01,32,3.20
2009,11,17,01,33,4.80
2009,11,17,01,34,3.20
2009,11,17,01,35,3.20
2009,11,17,01,36,3.20
2009,11,17,01,37,1.60
2009,11,17,01,38,3.20
2009,11,17,01,39,3.20
2009,11,17,01,40,3.20
2009,11,17,01,41,3.20
2009,11,17,01,42,1.60
2009,11,17,01,43,1.60
2009,11,17,01,44,0.00
2009,11,17,01,45,0.00
2009,11,17,01,46,1.60
2009,11,17,01,47,0.00
2009,11,17,01,48,0.00
2009,11,17,01,49,1.60
2009,11,17,01,50,1.60
2009,11,17,01,51,1.60
2009,11,17,01,52,0.00
2009,11,17,01,53,4.80
2009,11,17,01,54,6.40
2009,11,17,01,55,9.60
2009,11,17,01,56,8.10
2009,11,17,01,57,8.10
2009,11,17,01,58,3.20
2009,11,17,01,59,6.40
2009,11,17,02,00,4.80
2009,11,17,02,01,4.80
2009,11,17,02,02,6.40
2009,11,17,02,03,6.40
2009,11,17,02,04,1.60
2009,11,17,02,05,3.20
2009,11,17,02,06,8.10
2009,11,17,02,07,9.60
2009,11,17,02,08,4.80
2009,11,17,02,09,4.80
2009,11,17,02,10,6.40
2009,11,17,02,11,3.20
2009,11,17,02,12,3.20
2009,11,17,02,13,8.10
2009,11,17,02,14,6.40
2009,11,17,02,15,6.40
2009,11,17,02,16,3.20
2009,11,17,02,17,3.20
2009,11,17,02,18,1.60
2009,11,17,02,19,1.60
2009,11,17,02,20,3.20
2009,11,17,02,21,4.80
2009,11,17,02,22,4.80
2009,11,17,02,23,3.20
2009,11,17,02,24,3.20
2009,11,17,02,25,3.20
2009,11,17,02,26,1.60
2009,11,17,02,27,3.20
2009,11,17,02,28,3.20
2009,11,17,02,29,4.80
2009,11,17,02,30,1.60
2009,11,17,02,31,1.60
2009,11,17,02,32,3.20
2009,11,17,02,33,6.40
2009,11,17,02,34,6.40
2009,11,17,02,35,3.20
2009,11,17,02,36,3.20
2009,11,17,02,37,3.20
2009,11,17,02,38,1.60
2009,11,17,02,39,3.20
2009,11,17,02,40,3.20
2009,11,17,02,41,1.60
2009,11,17,02,42,0.00
2009,11,17,02,43,0.00
2009,11,17,02,44,3.20
2009,11,17,02,45,3.20
2009,11,17,02,46,3.20
2009,11,17,02,47,0.00
2009,11,17,02,48,1.60
2009,11,17,02,49,0.00
2009,11,17,02,50,0.00
2009,11,17,02,51,0.00
2009,11,17,02,52,1.60
2009,11,17,02,53,0.00
2009,11,17,02,54,1.60
2009,11,17,02,55,1.60
2009,11,17,02,56,1.60
2009,11,17,02,57,1.60
2009,11,17,02,58,3.20
2009,11,17,02,59,1.60
2009,11,17,03,00,1.60
2009,11,17,03,01,1.60
2009,11,17,03,02,1.60
2009,11,17,03,06,1.60
2009,11,17,03,07,3.20
2009,11,17,03,08,1.60
2009,11,17,03,09,3.20
2009,11,17,03,10,1.60
2009,11,17,03,11,3.20
2009,11,17,03,12,3.20
2009,11,17,03,13,1.60
2009,11,17,03,14,3.20
2009,11,17,03,15,1.60
2009,11,17,03,16,1.60
2009,11,17,03,17,1.60
2009,11,17,03,18,3.20
2009,11,17,03,19,3.20
2009,11,17,03,20,4.80
2009,11,17,03,21,4.80
2009,11,17,03,22,4.80
2009,11,17,03,23,6.40
2009,11,17,03,24,3.20
2009,11,17,03,25,11.30
2009,11,17,03,26,4.80
2009,11,17,03,27,8.10
2009,11,17,03,28,6.40
2009,11,17,03,29,16.10
2009,11,17,03,30,20.90
2009,11,17,03,31,14.50
2009,11,17,03,32,8.10
2009,11,17,03,33,14.50
2009,11,17,03,34,29.00
2009,11,17,03,35,20.90
2009,11,17,03,36,16.10
2009,11,17,03,37,11.30
2009,11,17,03,38,24.20
2009,11,17,03,39,17.70
2009,11,17,03,40,11.30
2009,11,17,03,41,12.90
2009,11,17,03,42,8.10
2009,11,17,03,43,4.80
2009,11,17,03,44,3.20
2009,11,17,03,45,3.20
2009,11,17,03,46,9.60
2009,11,17,03,47,14.50
2009,11,17,03,48,9.60
2009,11,17,03,49,1.60
2009,11,17,03,50,0.00
2009,11,17,03,51,1.60
2009,11,17,03,52,4.80
2009,11,17,03,53,11.30
2009,11,17,03,54,8.10
2009,11,17,03,55,9.60
2009,11,17,03,56,22.50
2009,11,17,03,57,17.70
2009,11,17,03,58,6.40
2009,11,17,03,59,8.10
2009,11,17,04,00,20.90
2009,11,17,04,01,25.70
2009,11,17,04,02,11.30
2009,11,17,04,03,12.90
2009,11,17,04,04,6.40
2009,11,17,04,05,6.40
2009,11,17,04,06,6.40
2009,11,17,04,07,16.10
2009,11,17,04,08,14.50
2009,11,17,04,09,6.40
2009,11,17,04,10,6.40
2009,11,17,04,11,6.40
2009,11,17,04,12,4.80
2009,11,17,04,13,8.10
2009,11,17,04,14,8.10
2009,11,17,04,15,9.60
2009,11,17,04,16,9.60
2009,11,17,04,17,11.30
2009,11,17,04,18,4.80
2009,11,17,04,19,8.10
2009,11,17,04,20,6.40
2009,11,17,04,21,8.10
2009,11,17,04,22,8.10
2009,11,17,04,23,1.60
2009,11,17,04,24,3.20
2009,11,17,04,25,8.10
2009,11,17,04,26,8.10
2009,11,17,04,27,9.60
2009,11,17,04,28,11.30
2009,11,17,04,29,17.70
2009,11,17,04,30,19.30
2009,11,17,04,31,17.70
2009,11,17,04,32,24.20
2009,11,17,04,33,20.90
2009,11,17,04,34,4.80
2009,11,17,04,35,8.10
2009,11,17,04,36,6.40
2009,11,17,04,37,9.60
2009,11,17,04,38,6.40
2009,11,17,04,39,6.40
2009,11,17,04,40,4.80
2009,11,17,04,41,4.80
2009,11,17,04,42,6.40
2009,11,17,04,43,3.20
2009,11,17,04,44,8.10
2009,11,17,04,45,6.40
2009,11,17,04,46,3.20
2009,11,17,04,47,1.60
2009,11,17,04,48,4.80
2009,11,17,04,49,4.80
2009,11,17,04,50,8.10
2009,11,17,04,51,8.10
2009,11,17,04,52,14.50
2009,11,17,04,53,25.70
2009,11,17,04,54,22.50
2009,11,17,04,55,22.50
2009,11,17,04,56,17.70
2009,11,17,04,57,9.60
2009,11,17,04,58,16.10
2009,11,17,04,59,19.30
2009,11,17,05,00,25.70
2009,11,17,05,01,17.70
2009,11,17,05,02,11.30
2009,11,17,05,03,20.90
2009,11,17,05,04,14.50
2009,11,17,05,05,14.50
2009,11,17,05,06,19.30
2009,11,17,05,07,17.70
2009,11,17,05,08,20.90
2009,11,17,05,09,20.90
2009,11,17,05,10,22.50
2009,11,17,05,11,14.50
2009,11,17,05,12,17.70
2009,11,17,05,13,14.50
2009,11,17,05,14,16.10
2009,11,17,05,15,14.50
2009,11,17,05,16,16.10
2009,11,17,05,17,14.50
2009,11,17,05,18,16.10
2009,11,17,05,19,29.00
2009,11,17,05,20,19.30
2009,11,17,05,21,9.60
2009,11,17,05,22,24.20
2009,11,17,05,23,22.50
2009,11,17,05,24,27.40
2009,11,17,05,25,22.50
2009,11,17,05,26,12.90
2009,11,17,05,27,9.60
2009,11,17,05,28,16.10
2009,11,17,05,29,19.30
2009,11,17,05,30,22.50
2009,11,17,05,31,14.50
2009,11,17,05,32,14.50
2009,11,17,05,33,6.40
2009,11,17,05,34,8.10
2009,11,17,05,35,6.40
2009,11,17,05,36,14.50
2009,11,17,05,37,6.40
2009,11,17,05,38,11.30
2009,11,17,05,39,17.70
2009,11,17,05,40,20.90
2009,11,17,05,41,19.30
2009,11,17,05,42,11.30
2009,11,17,05,43,6.40
2009,11,17,05,44,8.10
2009,11,17,05,45,8.10
2009,11,17,05,46,16.10
2009,11,17,05,47,19.30
2009,11,17,05,48,16.10
2009,11,17,05,49,11.30
2009,11,17,05,50,9.60
2009,11,17,05,51,19.30
2009,11,17,05,52,16.10
2009,11,17,05,53,11.30
2009,11,17,05,54,6.40
2009,11,17,05,55,9.60
2009,11,17,05,56,9.60
2009,11,17,05,57,8.10
2009,11,17,05,58,3.20
2009,11,17,05,59,8.10
2009,11,17,06,00,14.50
2009,11,17,06,01,11.30
2009,11,17,06,02,8.10
2009,11,17,06,03,8.10
2009,11,17,06,04,6.40
2009,11,17,06,05,4.80
2009,11,17,06,06,11.30
2009,11,17,06,07,6.40
2009,11,17,06,08,9.60
2009,11,17,06,09,9.60
2009,11,17,06,10,8.10
2009,11,17,06,11,4.80
2009,11,17,06,12,6.40
2009,11,17,06,13,9.60
2009,11,17,06,14,4.80
2009,11,17,06,15,6.40
2009,11,17,06,16,1.60
2009,11,17,06,17,4.80
2009,11,17,06,18,3.20
2009,11,17,06,19,3.20
2009,11,17,06,20,3.20
2009,11,17,06,21,1.60
2009,11,17,06,22,3.20
2009,11,17,06,23,1.60
2009,11,17,06,24,0.00
2009,11,17,06,25,0.00
2009,11,17,06,26,1.60
2009,11,17,06,27,1.60
2009,11,17,06,28,1.60
2009,11,17,06,29,1.60
2009,11,17,06,30,1.60
2009,11,17,06,31,0.00
2009,11,17,06,32,0.00
2009,11,17,06,33,0.00
2009,11,17,06,34,0.00
2009,11,17,06,35,3.20
2009,11,17,06,36,1.60
2009,11,17,06,37,1.60
2009,11,17,06,38,6.40
2009,11,17,06,39,8.10
2009,11,17,06,40,8.10
2009,11,17,06,41,6.40
2009,11,17,06,42,1.60
2009,11,17,06,43,1.60
2009,11,17,06,44,3.20
2009,11,17,06,45,1.60
2009,11,17,06,46,1.60
2009,11,17,06,47,0.00
2009,11,17,06,48,1.60
2009,11,17,06,49,3.20
2009,11,17,06,50,1.60
2009,11,17,06,51,1.60
2009,11,17,06,52,1.60
2009,11,17,06,53,1.60
2009,11,17,06,54,1.60
2009,11,17,06,55,1.60
2009,11,17,06,56,1.60
2009,11,17,06,57,4.80
2009,11,17,06,58,4.80
2009,11,17,06,59,4.80
2009,11,17,07,00,3.20
2009,11,17,07,01,3.20
2009,11,17,07,02,0.00
2009,11,17,07,03,1.60
2009,11,17,07,04,0.00
2009,11,17,07,05,0.00
2009,11,17,07,06,1.60
2009,11,17,07,07,3.20
2009,11,17,07,08,1.60
2009,11,17,07,09,3.20
2009,11,17,07,10,1.60
2009,11,17,07,11,1.60
2009,11,17,07,12,3.20
2009,11,17,07,13,1.60
2009,11,17,07,14,0.00
2009,11,17,07,15,0.00
2009,11,17,07,16,3.20
2009,11,17,07,17,3.20
2009,11,17,07,18,3.20
2009,11,17,07,19,1.60
2009,11,17,07,20,1.60
2009,11,17,07,21,6.40
2009,11,17,07,22,4.80
2009,11,17,07,23,6.40
2009,11,17,07,24,14.50
2009,11,17,07,25,11.30
2009,11,17,07,26,6.40
2009,11,17,07,27,6.40
2009,11,17,07,28,9.60
2009,11,17,07,29,12.90
2009,11,17,07,30,24.20
2009,11,17,07,31,14.50
2009,11,17,07,32,22.50
2009,11,17,07,33,14.50
2009,11,17,07,34,3.20
2009,11,17,07,35,4.80
2009,11,17,07,36,9.60
2009,11,17,07,37,8.10
2009,11,17,07,38,3.20
2009,11,17,07,39,6.40
2009,11,17,07,40,6.40
2009,11,17,07,41,4.80
2009,11,17,07,42,6.40
2009,11,17,07,43,8.10
2009,11,17,07,44,6.40
2009,11,17,07,45,3.20
2009,11,17,07,46,25.70
2009,11,17,07,47,9.60
2009,11,17,07,48,6.40
2009,11,17,07,49,9.60
2009,11,17,07,50,16.10
2009,11,17,07,51,19.30
2009,11,17,07,52,24.20
2009,11,17,07,53,24.20
2009,11,17,07,54,30.60
2009,11,17,07,55,32.20
2009,11,17,07,56,24.20
2009,11,17,07,57,19.30
2009,11,17,07,58,12.90
2009,11,17,07,59,25.70
2009,11,17,08,00,19.30
2009,11,17,08,01,17.70
2009,11,17,08,02,25.70
2009,11,17,08,03,30.60
2009,11,17,08,04,29.00
2009,11,17,08,05,27.40
2009,11,17,08,06,25.70
2009,11,17,08,07,22.50
2009,11,17,08,08,24.20
2009,11,17,08,09,24.20
2009,11,17,08,10,27.40
2009,11,17,08,11,19.30
2009,11,17,08,12,22.50
2009,11,17,08,13,17.70
2009,11,17,08,14,27.40
2009,11,17,08,15,22.50
2009,11,17,08,16,9.60
2009,11,17,08,17,30.60
2009,11,17,08,18,19.30
2009,11,17,08,19,22.50
2009,11,17,08,20,29.00
2009,11,17,08,21,19.30
2009,11,17,08,22,30.60
2009,11,17,08,23,20.90
2009,11,17,08,24,22.50
2009,11,17,08,25,24.20
2009,11,17,08,26,29.00
2009,11,17,08,27,27.40
2009,11,17,08,28,27.40
2009,11,17,08,29,16.10
2009,11,17,08,30,35.40
2009,11,17,08,31,35.40
2009,11,17,08,32,30.60
2009,11,17,08,33,30.60
2009,11,17,08,34,17.70
2009,11,17,08,35,17.70
2009,11,17,08,36,25.70
2009,11,17,08,37,24.20
2009,11,17,08,38,29.00
2009,11,17,08,39,27.40
2009,11,17,08,40,24.20
2009,11,17,08,41,27.40
2009,11,17,08,42,24.20
2009,11,17,08,43,22.50
2009,11,17,08,44,27.40
2009,11,17,08,45,20.90
2009,11,17,08,46,27.40
2009,11,17,08,47,19.30
2009,11,17,08,48,24.20
2009,11,17,08,49,19.30
2009,11,17,08,50,19.30
2009,11,17,08,51,22.50
2009,11,17,08,52,30.60
2009,11,17,08,53,25.70
2009,11,17,08,54,32.20
2009,11,17,08,55,11.30
2009,11,17,08,56,17.70
2009,11,17,08,57,35.40
2009,11,17,08,58,37.00
2009,11,17,08,59,25.70
2009,11,17,09,00,41.80
2009,11,17,09,01,22.50
2009,11,17,09,02,29.00
2009,11,17,09,03,33.80
2009,11,17,09,04,20.90
2009,11,17,09,05,20.90
2009,11,17,09,06,22.50
2009,11,17,09,07,11.30
2009,11,17,09,08,19.30
2009,11,17,09,09,25.70
2009,11,17,09,10,43.50
2009,11,17,09,11,33.80
2009,11,17,09,12,40.20
2009,11,17,09,13,17.70
2009,11,17,09,14,38.60
2009,11,17,09,15,27.40
2009,11,17,09,16,25.70
2009,11,17,09,17,37.00
2009,11,17,09,18,19.30
2009,11,17,09,19,22.50
2009,11,17,09,20,11.30
2009,11,17,09,21,11.30
2009,11,17,09,22,20.90
2009,11,17,09,23,24.20
2009,11,17,09,24,22.50
2009,11,17,09,25,24.20
2009,11,17,09,26,16.10
2009,11,17,09,27,20.90
2009,11,17,09,28,9.60
2009,11,17,09,29,22.50
2009,11,17,09,30,20.90
2009,11,17,09,31,20.90
2009,11,17,09,32,35.40
2009,11,17,09,33,30.60
2009,11,17,09,34,11.30
2009,11,17,09,35,14.50
2009,11,17,09,36,14.50
2009,11,17,09,37,9.60
2009,11,17,09,38,3.20
2009,11,17,09,39,9.60
2009,11,17,09,40,11.30
2009,11,17,09,41,3.20
2009,11,17,09,42,6.40
2009,11,17,09,43,0.00
2009,11,17,09,44,6.40
2009,11,17,09,45,4.80
2009,11,17,09,46,4.80
2009,11,17,09,47,6.40
2009,11,17,09,48,3.20
2009,11,17,09,49,4.80
2009,11,17,09,50,4.80
2009,11,17,09,51,3.20
2009,11,17,09,52,3.20
2009,11,17,09,53,4.80
2009,11,17,09,54,6.40
2009,11,17,09,55,4.80
2009,11,17,09,56,0.00
2009,11,17,09,57,3.20
2009,11,17,09,58,6.40
2009,11,17,09,59,17.70
2009,11,17,10,00,6.40
2009,11,17,10,01,4.80
2009,11,17,10,02,8.10
2009,11,17,10,03,14.50
2009,11,17,10,04,9.60
2009,11,17,10,05,6.40
2009,11,17,10,06,11.30
2009,11,17,10,07,9.60
2009,11,17,10,08,8.10
2009,11,17,10,09,6.40
2009,11,17,10,10,4.80
2009,11,17,10,11,3.20
2009,11,17,10,12,4.80
2009,11,17,10,13,3.20
2009,11,17,10,14,4.80
2009,11,17,10,15,3.20
2009,11,17,10,16,3.20
2009,11,17,10,17,0.00
2009,11,17,10,18,1.60
2009,11,17,10,19,1.60
2009,11,17,10,20,3.20
2009,11,17,10,21,9.60
2009,11,17,10,22,8.10
2009,11,17,10,23,11.30
2009,11,17,10,24,14.50
2009,11,17,10,25,25.70
2009,11,17,10,26,20.90
2009,11,17,10,27,16.10
2009,11,17,10,28,17.70
2009,11,17,10,29,30.60
2009,11,17,10,30,32.20
2009,11,17,10,31,20.90
2009,11,17,10,32,22.50
2009,11,17,10,33,35.40
2009,11,17,10,34,30.60
2009,11,17,10,35,22.50
2009,11,17,10,36,11.30
2009,11,17,10,37,20.90
2009,11,17,10,38,20.90
2009,11,17,10,39,20.90
2009,11,17,10,40,40.20
2009,11,17,10,41,27.40
2009,11,17,10,42,19.30
2009,11,17,10,43,27.40
2009,11,17,10,44,30.60
2009,11,17,10,45,38.60
2009,11,17,10,46,35.40
2009,11,17,10,47,30.60
2009,11,17,10,48,41.80
2009,11,17,10,49,27.40
2009,11,17,10,50,35.40
2009,11,17,10,51,22.50
2009,11,17,10,52,41.80
2009,11,17,10,53,22.50
2009,11,17,10,54,29.00
2009,11,17,10,55,30.60
2009,11,17,10,56,24.20
2009,11,17,10,57,32.20
2009,11,17,10,58,30.60
2009,11,17,10,59,25.70
2009,11,17,11,00,29.00
2009,11,17,11,01,30.60
2009,11,17,11,02,33.80
2009,11,17,11,03,25.70
2009,11,17,11,04,25.70
2009,11,17,11,05,29.00
2009,11,17,11,06,35.40
2009,11,17,11,07,46.70
2009,11,17,11,08,43.50
2009,11,17,11,09,19.30
2009,11,17,11,10,22.50
2009,11,17,11,11,38.60
2009,11,17,11,12,32.20
2009,11,17,11,13,30.60
2009,11,17,11,14,37.00
2009,11,17,11,15,33.80
2009,11,17,11,16,22.50
2009,11,17,11,17,25.70
2009,11,17,11,18,38.60
2009,11,17,11,19,30.60
2009,11,17,11,20,17.70
2009,11,17,11,21,33.80
2009,11,17,11,22,25.70
2009,11,17,11,23,33.80
2009,11,17,11,24,19.30
2009,11,17,11,25,19.30
2009,11,17,11,26,22.50
2009,11,17,11,27,17.70
2009,11,17,11,28,29.00
2009,11,17,11,29,11.30
2009,11,17,11,30,22.50
2009,11,17,11,31,20.90
2009,11,17,11,32,33.80
2009,11,17,11,33,27.40
2009,11,17,11,34,27.40
2009,11,17,11,35,11.30
2009,11,17,11,36,22.50
2009,11,17,11,37,24.20
2009,11,17,11,38,30.60
2009,11,17,11,39,16.10
2009,11,17,11,40,32.20
2009,11,17,11,41,33.80
2009,11,17,11,42,16.10
2009,11,17,11,43,30.60
2009,11,17,11,44,33.80
2009,11,17,11,45,22.50
2009,11,17,11,46,25.70
2009,11,17,11,47,24.20
2009,11,17,11,48,19.30
2009,11,17,11,49,24.20
2009,11,17,11,50,25.70
2009,11,17,11,51,19.30
2009,11,17,11,52,19.30
2009,11,17,11,53,22.50
2009,11,17,11,54,27.40
2009,11,17,11,55,27.40
2009,11,17,11,56,27.40
2009,11,17,11,57,25.70
2009,11,17,11,58,14.50
2009,11,17,11,59,22.50
2009,11,17,12,00,29.00
2009,11,17,12,01,22.50
2009,11,17,12,02,22.50
2009,11,17,12,03,14.50
2009,11,17,12,04,24.20
2009,11,17,12,05,16.10
2009,11,17,12,06,25.70
2009,11,17,12,07,16.10
2009,11,17,12,08,17.70
2009,11,17,12,09,16.10
2009,11,17,12,10,17.70
2009,11,17,12,11,19.30
2009,11,17,12,12,29.00
2009,11,17,12,13,37.00
2009,11,17,12,14,24.20
2009,11,17,12,15,25.70
2009,11,17,12,16,25.70
2009,11,17,12,17,35.40
2009,11,17,12,18,32.20
2009,11,17,12,19,29.00
2009,11,17,12,20,32.20
2009,11,17,12,21,32.20
2009,11,17,12,22,29.00
2009,11,17,12,23,27.40
2009,11,17,12,24,19.30
2009,11,17,12,25,29.00
2009,11,17,12,26,20.90
2009,11,17,12,27,29.00
2009,11,17,12,28,17.70
2009,11,17,12,29,20.90
2009,11,17,12,30,16.10
2009,11,17,12,31,17.70
2009,11,17,12,32,16.10
2009,11,17,12,33,30.60
2009,11,17,12,34,22.50
2009,11,17,12,35,9.60
2009,11,17,12,36,14.50
2009,11,17,12,37,19.30
2009,11,17,12,38,17.70
2009,11,17,12,39,16.10
2009,11,17,12,40,6.40
2009,11,17,12,41,6.40
2009,11,17,12,42,17.70
2009,11,17,12,43,16.10
2009,11,17,12,44,11.30
2009,11,17,12,45,6.40
2009,11,17,12,46,4.80
2009,11,17,12,47,4.80
2009,11,17,12,48,3.20
2009,11,17,12,49,4.80
2009,11,17,12,50,9.60
2009,11,17,12,51,12.90
2009,11,17,12,52,14.50
2009,11,17,12,53,4.80
2009,11,17,12,54,4.80
2009,11,17,12,55,1.60
2009,11,17,12,56,3.20
2009,11,17,12,57,8.10
2009,11,17,12,58,8.10
2009,11,17,12,59,8.10
2009,11,17,13,00,17.70
2009,11,17,13,01,24.20
2009,11,17,13,02,12.90
2009,11,17,13,03,17.70
2009,11,17,13,04,16.10
2009,11,17,13,05,19.30
2009,11,17,13,06,22.50
2009,11,17,13,07,4.80
2009,11,17,13,08,4.80
2009,11,17,13,09,24.20
2009,11,17,13,10,22.50
2009,11,17,13,11,8.10
2009,11,17,13,12,9.60
2009,11,17,13,13,20.90
2009,11,17,13,14,16.10
2009,11,17,13,15,3.20
2009,11,17,13,16,9.60
2009,11,17,13,17,9.60
2009,11,17,13,18,8.10
2009,11,17,13,19,1.60
2009,11,17,13,20,6.40
2009,11,17,13,21,8.10
2009,11,17,13,22,4.80
2009,11,17,13,23,4.80
2009,11,17,13,24,17.70
2009,11,17,13,25,20.90
2009,11,17,13,26,17.70
2009,11,17,13,27,27.40
2009,11,17,13,28,22.50
2009,11,17,13,29,19.30
2009,11,17,13,30,16.10
2009,11,17,13,31,14.50
2009,11,17,13,32,25.70
2009,11,17,13,33,17.70
2009,11,17,13,34,9.60
2009,11,17,13,35,4.80
2009,11,17,13,36,11.30
2009,11,17,13,37,11.30
2009,11,17,13,38,16.10
2009,11,17,13,39,11.30
2009,11,17,13,40,11.30
2009,11,17,13,41,6.40
2009,11,17,13,42,8.10
2009,11,17,13,43,11.30
2009,11,17,13,44,9.60
2009,11,17,13,45,8.10
2009,11,17,13,46,8.10
2009,11,17,13,47,12.90
2009,11,17,13,48,11.30
2009,11,17,13,49,6.40
2009,11,17,13,50,6.40
2009,11,17,13,51,16.10
2009,11,17,13,52,9.60
2009,11,17,13,53,9.60
2009,11,17,13,54,8.10
2009,11,17,13,55,4.80
2009,11,17,13,56,9.60
2009,11,17,13,57,8.10
2009,11,17,13,58,16.10
2009,11,17,13,59,12.90
2009,11,17,14,00,9.60
2009,11,17,14,01,16.10
2009,11,17,14,02,8.10
2009,11,17,14,03,4.80
2009,11,17,14,04,6.40
2009,11,17,14,05,6.40
2009,11,17,14,06,4.80
2009,11,17,14,07,1.60
2009,11,17,14,08,3.20
2009,11,17,14,09,4.80
2009,11,17,14,10,3.20
2009,11,17,14,11,1.60
2009,11,17,14,12,4.80
2009,11,17,14,13,3.20
2009,11,17,14,14,0.00
2009,11,17,14,15,1.60
2009,11,17,14,16,3.20
2009,11,17,14,17,3.20
2009,11,17,14,18,3.20
2009,11,17,14,19,3.20
2009,11,17,14,20,3.20
2009,11,17,14,21,1.60
2009,11,17,14,22,4.80
2009,11,17,14,23,4.80
2009,11,17,14,24,6.40
2009,11,17,14,25,4.80
2009,11,17,14,26,3.20
2009,11,17,14,27,1.60
2009,11,17,14,28,0.00
2009,11,17,14,29,1.60
2009,11,17,14,30,1.60
2009,11,17,14,31,1.60
2009,11,17,14,32,0.00
2009,11,17,14,33,0.00
2009,11,17,14,34,3.20
2009,11,17,14,35,3.20
2009,11,17,14,36,3.20
2009,11,17,14,37,3.20
2009,11,17,14,38,3.20
2009,11,17,14,39,4.80
2009,11,17,14,40,4.80
2009,11,17,14,41,4.80
2009,11,17,14,42,9.60
2009,11,17,14,43,8.10
2009,11,17,14,44,6.40
2009,11,17,14,45,0.00
2009,11,17,14,46,1.60
2009,11,17,14,47,3.20
2009,11,17,14,48,3.20
2009,11,17,14,49,3.20
2009,11,17,14,50,4.80
2009,11,17,14,51,3.20
2009,11,17,14,52,1.60
2009,11,17,14,53,3.20
2009,11,17,14,54,1.60
2009,11,17,14,55,3.20
2009,11,17,14,56,3.20
2009,11,17,14,57,3.20
2009,11,17,14,58,3.20
2009,11,17,14,59,1.60
2009,11,17,15,00,1.60
2009,11,17,15,01,1.60
2009,11,17,15,02,3.20
2009,11,17,15,03,0.00
2009,11,17,15,04,0.00
2009,11,17,15,05,1.60
2009,11,17,15,06,0.00
2009,11,17,15,07,6.40
2009,11,17,15,08,4.80
2009,11,17,15,09,6.40
2009,11,17,15,10,3.20
2009,11,17,15,11,1.60
2009,11,17,15,12,1.60
2009,11,17,15,13,1.60
2009,11,17,15,14,3.20
2009,11,17,15,15,1.60
2009,11,17,15,16,3.20
2009,11,17,15,17,3.20
2009,11,17,15,18,9.60
2009,11,17,15,19,4.80
2009,11,17,15,20,4.80
2009,11,17,15,21,3.20
2009,11,17,15,22,3.20
2009,11,17,15,23,8.10
2009,11,17,15,24,6.40
2009,11,17,15,25,3.20
2009,11,17,15,26,3.20
2009,11,17,15,27,3.20
2009,11,17,15,28,3.20
2009,11,17,15,29,0.00
2009,11,17,15,30,1.60
2009,11,17,15,31,0.00
2009,11,17,15,32,0.00
2009,11,17,15,33,0.00
2009,11,17,15,34,1.60
2009,11,17,15,35,0.00
2009,11,17,15,36,0.00
2009,11,17,15,37,0.00
2009,11,17,15,38,0.00
2009,11,17,15,39,0.00
2009,11,17,15,40,0.00
2009,11,17,15,41,0.00
2009,11,17,15,42,1.60
2009,11,17,15,43,0.00
2009,11,17,15,44,0.00
2009,11,17,15,45,0.00
2009,11,17,15,46,1.60
2009,11,17,15,47,1.60
2009,11,17,15,48,1.60
2009,11,17,15,49,1.60
2009,11,17,15,50,3.20
2009,11,17,15,51,1.60
2009,11,17,15,52,3.20
2009,11,17,15,53,4.80
2009,11,17,15,54,11.30
2009,11,17,15,55,6.40
2009,11,17,15,56,1.60
2009,11,17,15,57,8.10
2009,11,17,15,58,4.80
2009,11,17,15,59,8.10
2009,11,17,16,00,6.40
2009,11,17,16,01,9.60
2009,11,17,16,02,9.60
2009,11,17,16,03,11.30
2009,11,17,16,04,8.10
2009,11,17,16,05,6.40
2009,11,17,16,06,6.40
2009,11,17,16,07,8.10
2009,11,17,16,08,4.80
2009,11,17,16,09,8.10
2009,11,17,16,10,4.80
2009,11,17,16,11,9.60
2009,11,17,16,12,9.60
2009,11,17,16,13,8.10
2009,11,17,16,14,3.20
2009,11,17,16,15,8.10
2009,11,17,16,16,3.20
2009,11,17,16,17,3.20
2009,11,17,16,18,1.60
2009,11,17,16,19,3.20
2009,11,17,16,20,1.60
2009,11,17,16,21,4.80
2009,11,17,16,22,4.80
2009,11,17,16,23,6.40
2009,11,17,16,24,4.80
2009,11,17,16,25,3.20
2009,11,17,16,26,6.40
2009,11,17,16,27,8.10
2009,11,17,16,28,8.10
2009,11,17,16,29,4.80
2009,11,17,16,30,6.40
2009,11,17,16,31,4.80
2009,11,17,16,32,3.20
2009,11,17,16,33,1.60
2009,11,17,16,34,1.60
2009,11,17,16,35,1.60
2009,11,17,16,36,3.20
2009,11,17,16,37,4.80
2009,11,17,16,38,3.20
2009,11,17,16,39,3.20
2009,11,17,16,40,1.60
2009,11,17,16,41,1.60
2009,11,17,16,42,1.60
2009,11,17,16,43,4.80
2009,11,17,16,44,6.40
2009,11,17,16,45,0.00
2009,11,17,16,46,0.00
2009,11,17,16,47,1.60
2009,11,17,16,48,1.60
2009,11,17,16,49,1.60
2009,11,17,16,50,0.00
2009,11,17,16,51,0.00
2009,11,17,16,52,1.60
2009,11,17,16,53,1.60
2009,11,17,16,54,1.60
2009,11,17,16,55,1.60
2009,11,17,16,56,1.60
2009,11,17,16,57,1.60
2009,11,17,16,58,0.00
2009,11,17,16,59,0.00
2009,11,17,17,00,0.00
2009,11,17,17,01,0.00
2009,11,17,17,02,0.00
2009,11,17,17,03,0.00
2009,11,17,17,04,0.00
2009,11,17,17,05,0.00
2009,11,17,17,06,0.00
2009,11,17,17,07,0.00
2009,11,17,17,08,0.00
2009,11,17,17,09,0.00
2009,11,17,17,10,3.20
2009,11,17,17,11,1.60
2009,11,17,17,12,1.60
2009,11,17,17,13,3.20
2009,11,17,17,14,1.60
2009,11,17,17,15,1.60
2009,11,17,17,16,1.60
2009,11,17,17,17,0.00
2009,11,17,17,18,0.00
2009,11,17,17,19,1.60
2009,11,17,17,20,3.20
2009,11,17,17,21,1.60
2009,11,17,17,22,6.40
2009,11,17,17,23,6.40
2009,11,17,17,24,6.40
2009,11,17,17,25,1.60
2009,11,17,17,26,3.20
2009,11,17,17,27,4.80
2009,11,17,17,28,9.60
2009,11,17,17,29,9.60
2009,11,17,17,30,9.60
2009,11,17,17,31,9.60
2009,11,17,17,32,4.80
2009,11,17,17,33,9.60
2009,11,17,17,34,11.30
2009,11,17,17,35,9.60
2009,11,17,17,36,9.60
2009,11,17,17,37,8.10
2009,11,17,17,38,8.10
2009,11,17,17,39,6.40
2009,11,17,17,40,6.40
2009,11,17,17,41,8.10
2009,11,17,17,42,9.60
2009,11,17,17,43,6.40
2009,11,17,17,44,3.20
2009,11,17,17,45,3.20
2009,11,17,17,46,4.80
2009,11,17,17,47,4.80
2009,11,17,17,48,3.20
2009,11,17,17,49,9.60
2009,11,17,17,50,16.10
2009,11,17,17,51,8.10